SCP
0 0 0 0 0 0 0 0 0 0 0 0 0 0 0 0 0 0 0 0 0 0
0 0 0 0 0 0 0 0 0 0 0 0 0 0 0 0 0 0 0 0 0 0
0 0 0 0 0 0 0 0 0 0 0 0 0 0 0 0 0 0 0 0 0 0
0 0 0 0 0 0 0 0 0 0 0 0 0 0 0 0 0 0 0 0 0 0
0 0 0 0 0 0 0 0 0 0 0 0 0 0 0 -0 0 0 0 0 0 -0
0 0 0 0 0 0 0 0 0 0 0 0 0 -0 0 0 0 0 0 0 0 0
0 0 0 0 0 0 0 0 0 0 0 -0 0 -0 -0 -0 0 0 0 0 0 0
0 0 0 0 0 0 0 0 0 0 0 0 0 0 0 -0 -0 -0 0 0 0 0
0 0 0 0 0 0 0 0 0 0 0 0 0 0 -0 -0 -0 0 0 0 0 -0
0 0 0 0 0 0 0 0 0 0 0 0 0 0 -0 -0 -0 -0 0 0 0 0
0 0 0 0 0 0 0 -0 0 0 0 0 0 0 0 0 -0 -0 0 -0 0 0
-0 0 0 0 0 -0 -0 -0 -0 0 0 0 0 0 0 0 0 -0 -0 -0 -0 0
-0 0 0 0 -0 -0 -0 -0 0 0 0 0 0 0 0 0 0 0 0 -0 -0 -0
-0 -0 -0 -0 0 -0 -0 0 0 0 0 0 0 0 0 0 0 0 0 0 -0 -0
Wind_Speed_500mb
31 30 29 25 22 21 19 21 21 22 22 20 20 17 15 13 14 14 14 18 17 20
32 28 23 24 23 20 21 19 18 18 16 18 19 16 13 15 14 14 15 16 19 23
27 24 21 21 19 20 19 16 15 13 16 19 16 14 14 15 13 14 14 16 18 18
25 20 19 18 18 16 15 14 12 14 17 16 15 15 15 12 11 11 11 12 12 15
21 21 18 17 15 14 16 15 13 15 16 17 17 16 10 11 10 10 11 12 13 12
26 18 16 17 16 14 16 16 16 19 21 19 12 8 6 7 9 9 10 7 7 9
21 14 18 16 16 15 19 20 21 21 21 15 13 10 6 7 5 4 3 1 3 3
17 18 20 16 14 16 24 23 20 21 18 15 12 7 3 3 4 9 8 5 10 12
14 19 19 16 14 18 27 26 24 18 15 11 10 6 1 4 7 7 4 8 12 15
18 16 14 15 16 17 26 29 27 21 14 11 7 4 5 5 7 5 1 6 11 14
21 14 14 12 18 17 21 27 24 20 15 13 11 7 5 6 6 4 4 5 3 6
15 12 14 10 15 17 18 24 23 19 15 13 9 8 8 9 7 5 4 3 5 6
14 11 14 12 10 18 18 22 25 19 14 11 11 14 8 11 9 7 6 4 3 4
22 13 13 13 8 19 21 21 25 21 17 12 15 11 11 11 9 8 9 8 10 6
Wind_Direction_500mb
187 182 182 186 193 199 214 213 223 247 248 235 223 221 245 241 223 219 236 238 231 227
174 177 184 189 200 209 217 231 240 240 226 218 207 221 231 217 210 236 236 238 236 227
171 180 189 201 213 220 223 235 226 216 205 197 201 211 205 203 224 233 242 243 246 245
174 185 200 198 211 217 209 194 192 188 191 192 193 187 196 209 223 245 250 238 234 231
175 171 181 191 186 176 172 172 176 174 175 174 168 175 193 218 238 248 252 258 265 259
162 166 178 177 170 169 172 169 161 147 141 142 150 192 238 235 244 248 259 277 267 254
160 168 167 163 162 166 167 162 158 152 145 153 170 203 241 234 238 237 213 174 21 115
151 161 165 164 164 174 170 162 166 163 157 172 187 207 198 194 190 178 166 148 137 138
143 161 162 157 162 170 173 172 166 159 160 170 186 167 194 165 146 157 164 185 163 143
137 145 143 168 170 173 180 185 181 170 162 175 185 229 295 196 179 182 159 148 188 197
154 153 143 151 171 175 184 200 177 182 188 195 205 241 233 181 201 168 170 170 208 247
170 169 171 170 176 185 184 183 179 186 195 206 217 234 195 135 134 137 154 117 61 105
175 162 177 193 185 186 178 184 178 187 198 208 209 191 178 154 167 182 193 197 187 94
188 208 205 201 193 188 184 183 192 197 209 212 187 193 170 172 185 210 218 202 177 142
Wind_Speed_850mb
31 30 29 25 22 21 19 21 21 22 22 20 20 17 15 13 14 14 14 18 17 20
32 28 23 24 23 20 21 19 18 18 16 18 19 16 13 15 14 14 15 16 19 23
27 24 21 21 19 20 19 16 15 13 16 19 16 14 14 15 13 14 14 16 18 18
25 20 19 18 18 16 15 14 12 14 17 16 15 15 15 12 11 11 11 12 12 15
21 21 18 17 15 14 16 15 13 15 16 17 17 16 10 11 10 10 11 12 13 12
26 18 16 17 16 14 16 16 16 19 21 19 12 8 6 7 9 9 10 7 7 9
21 14 18 16 16 15 19 20 21 21 21 15 13 10 6 7 5 4 3 1 3 3
17 18 20 16 14 16 24 23 20 21 18 15 12 7 3 3 4 9 8 5 10 12
14 19 19 16 14 18 27 26 24 18 15 11 10 6 1 4 7 7 4 8 12 15
18 16 14 15 16 17 26 29 27 21 14 11 7 4 5 5 7 5 1 6 11 14
21 14 14 12 18 17 21 27 24 20 15 13 11 7 5 6 6 4 4 5 3 6
15 12 14 10 15 17 18 24 23 19 15 13 9 8 8 9 7 5 4 3 5 6
14 11 14 12 10 18 18 22 25 19 14 11 11 14 8 11 9 7 6 4 3 4
22 13 13 13 8 19 21 21 25 21 17 12 15 11 11 11 9 8 9 8 10 6
Wind_Direction_850mb
187 182 182 186 193 199 214 213 223 247 248 235 223 221 245 241 223 219 236 238 231 227
174 177 184 189 200 209 217 231 240 240 226 218 207 221 231 217 210 236 236 238 236 227
171 180 189 201 213 220 223 235 226 216 205 197 201 211 205 203 224 233 242 243 246 245
174 185 200 198 211 217 209 194 192 188 191 192 193 187 196 209 223 245 250 238 234 231
175 171 181 191 186 176 172 172 176 174 175 174 168 175 193 218 238 248 252 258 265 259
162 166 178 177 170 169 172 169 161 147 141 142 150 192 238 235 244 248 259 277 267 254
160 168 167 163 162 166 167 162 158 152 145 153 170 203 241 234 238 237 213 174 21 115
151 161 165 164 164 174 170 162 166 163 157 172 187 207 198 194 190 178 166 148 137 138
143 161 162 157 162 170 173 172 166 159 160 170 186 167 194 165 146 157 164 185 163 143
137 145 143 168 170 173 180 185 181 170 162 175 185 229 295 196 179 182 159 148 188 197
154 153 143 151 171 175 184 200 177 182 188 195 205 241 233 181 201 168 170 170 208 247
170 169 171 170 176 185 184 183 179 186 195 206 217 234 195 135 134 137 154 117 61 105
175 162 177 193 185 186 178 184 178 187 198 208 209 191 178 154 167 182 193 197 187 94
188 208 205 201 193 188 184 183 192 197 209 212 187 193 170 172 185 210 218 202 177 142